[[{"header":{"parameterUnit":"m.s-1","parameterCategory":1,"la1":30.2991,"la2":30.254,"lo1":-89.0895,"lo2":-89.0444,"dy":0.0017,"dx":0.0017,"nx":28,"ny":28,"refTime":"2023-10-30T21:00:00:Z","depth":0,"parameterNumber":2,"parameterNumberName":"U-component_of_WINDS"},"data":[0,0,0,0,0,0,0,0,0,0,0,0,0,0,0,0,0,0,0,0,0,0,0,0,0,0,0,0,0,0,0,0,0,0,0,0,0,0,0,0,0,0,0,0,0,0,0,0,0,0,0,0,0,0,0,0,0,0,-1.0301,-1.0301,0,-1.0321,-1.0321,-1.0321,-1.0299,-1.0298,-1.0297,-1.0297,-1.0317,-1.0319,-1.032,0,0,0,0,0,0,0,0,0,0,0,0,0,-1.0243,-1.0244,-1.0301,-1.0301,-1.0301,-1.0321,-1.0321,-1.0321,-1.0299,-1.0298,-1.0297,-1.0296,-1.0317,-1.0318,-1.032,0,0,0,0,0,0,0,0,0,0,0,0,0,-1.0266,-1.0244,-1.0301,-1.0293,-1.0292,-1.0321,-1.0321,-1.0321,-1.0299,-1.0298,-1.0297,-1.0296,-1.0316,-1.0318,-1.032,-1.0358,0,0,-1.0326,-1.0327,0,0,0,0,0,0,0,0,-1.0265,-1.0268,-1.0294,-1.0293,-1.0293,-1.0306,-1.0308,-1.0334,-1.03,-1.0297,-1.0297,-1.0295,-1.0315,-1.0317,-1.0323,-1.0359,-1.036,-1.0327,-1.0328,-1.0329,-1.0329,0,0,0,0,0,0,0,-1.0263,-1.0267,-1.0309,-1.0294,-1.0293,-1.0288,-1.029,-1.0313,-1.0313,-1.0297,-1.0295,-1.0298,-1.0314,-1.0321,-1.0324,-1.036,-1.0326,-1.0328,-1.033,-1.033,-1.0427,-1.0428,0,0,0,0,0,0,-1.0262,-1.0266,-1.0308,-1.0309,-1.0275,-1.029,-1.0292,-1.0303,-1.0312,-1.0312,-1.0299,-1.0297,-1.0319,-1.0321,-1.0324,-1.0369,-1.0329,-1.033,-1.0332,-1.0426,-1.0427,-1.0429,0,0,0,0,0,0,-1.0261,-1.0266,-1.0307,-1.0287,-1.0292,-1.0292,-1.0305,-1.0304,-1.0311,-1.0314,-1.0314,-1.0307,-1.0318,-1.0321,-1.035,-1.0369,-1.0331,-1.0333,-1.0424,-1.0426,-1.0428,-1.0459,0,0,0,0,0,0,-1.026,-1.0266,-1.0281,-1.0288,-1.0293,-1.0333,-1.0306,-1.0306,-1.0315,-1.0312,-1.0321,-1.0321,-1.0317,-1.0347,-1.0352,-1.0371,-1.0335,-1.0422,-1.0425,-1.0428,-1.0456,-1.0462,-1.0466,0,0,0,0,0,-1.0258,-1.0288,-1.0281,-1.0287,-1.0311,-1.0334,-1.0337,-1.0332,-1.0317,-1.0331,-1.0333,-1.0321,-1.0366,-1.035,-1.0355,-1.0376,-1.0421,-1.0424,-1.0427,-1.0454,-1.046,-1.0466,0,0,0,0,0,0,-1.0284,-1.0289,-1.0282,-1.0316,-1.0325,-1.033,-1.0348,-1.0339,-1.0352,-1.0349,-1.0342,-1.0344,-1.0374,-1.0378,-1.0359,-1.0412,-1.0391,-1.0395,-1.0409,-1.0416,-1.0421,-1.042,-1.0336,0,0,0,0,0,-1.0294,-1.0312,-1.0315,-1.0345,-1.035,-1.0348,-1.0358,-1.0353,-1.0362,-1.0365,-1.0369,-1.0378,-1.0394,-1.0405,-1.042,-1.0456,-1.0457,-1.0473,-1.0478,-1.0482,-1.0486,-1.0505,-1.0512,-1.0439,-1.0439,-1.0439,0,0,-1.0314,-1.0319,-1.0331,-1.035,-1.0357,-1.0375,-1.0352,-1.0373,-1.0386,-1.0369,-1.0396,-1.0398,-1.0408,-1.044,-1.0454,-1.0444,-1.0506,-1.0486,-1.0489,-1.0491,-1.0509,-1.0516,-1.0522,-1.0441,-1.0441,-1.044,0,0,-1.0361,-1.0367,-1.0392,-1.0399,-1.0408,-1.0407,-1.0413,-1.042,-1.0421,-1.0448,-1.0435,-1.0451,-1.0479,-1.0486,-1.0493,-1.0542,-1.0532,-1.0547,-1.0574,-1.0593,-1.0599,-1.0604,-1.0621,-1.0628,-1.0551,-1.0551,-1.0551,0,-1.0386,-1.0413,-1.0406,-1.0428,-1.0437,-1.0421,-1.0447,-1.0453,-1.0467,-1.0474,-1.0461,-1.0496,-1.0501,-1.0535,-1.0547,-1.0553,-1.056,-1.0546,-1.0598,-1.0603,-1.0608,-1.0625,-1.0631,-1.0553,-1.0552,-1.0552,-1.0552,0,-1.0443,-1.0462,-1.0481,-1.0495,-1.0506,-1.0529,-1.0526,-1.0537,-1.0531,-1.0531,-1.0558,-1.0564,-1.0579,-1.0587,-1.0581,-1.0619,-1.0613,-1.06,-1.0578,-1.0617,-1.0632,-1.0639,-1.0555,-1.0555,-1.0554,-1.0554,0,0,-1.0508,-1.0517,-1.0524,-1.053,-1.0539,-1.0554,-1.0576,-1.0592,-1.0602,-1.0611,-1.063,-1.0654,-1.0641,-1.065,-1.0644,-1.0661,-1.0699,-1.0646,-1.0646,-1.0656,-1.0741,-1.0752,-1.0759,-1.0691,-1.0693,-1.0694,-1.0741,0,-1.0556,-1.0595,-1.0589,-1.0626,-1.0644,-1.0629,-1.0648,-1.0656,-1.0656,-1.0671,-1.067,-1.0687,-1.067,-1.0675,-1.069,-1.0691,-1.0716,-1.0687,-1.0709,-1.071,-1.0708,-1.0767,-1.0778,-1.0822,-1.0747,-1.0748,-1.0748,0,-1.0616,-1.0628,-1.0668,-1.0673,-1.0681,-1.0698,-1.0711,-1.0726,-1.0733,-1.0732,-1.0741,-1.0733,-1.0755,-1.0732,-1.0762,-1.0743,-1.0751,-1.0753,-1.0754,-1.0757,-1.0732,-1.0772,-1.0836,-1.0843,-1.0758,-1.0757,-1.0756,0,-1.0661,-1.0686,-1.0713,-1.0719,-1.0726,-1.0739,-1.0742,-1.0749,-1.0758,-1.0769,-1.0775,-1.0789,-1.0797,-1.0807,-1.0802,-1.0786,-1.0833,-1.0811,-1.0833,-1.0833,-1.0844,-1.0844,-1.0912,-1.0849,-1.0849,-1.0849,-1.0848,0,-1.0715,-1.0739,-1.0733,-1.075,-1.0777,-1.0769,-1.0796,-1.0798,-1.0804,-1.082,-1.0807,-1.0823,-1.0815,-1.083,-1.0827,-1.0852,-1.0856,-1.0855,-1.0854,-1.0857,-1.0857,-1.0863,-1.086,-1.085,-1.085,-1.085,-1.0849,0,-1.0769,-1.0766,-1.0794,-1.0798,-1.08,-1.082,-1.0823,-1.0838,-1.0837,-1.0858,-1.0862,-1.086,-1.0877,-1.0873,-1.0892,-1.0889,-1.0921,-1.0916,-1.0919,-1.0918,-1.0941,-1.0939,-1.1015,-1.1025,-1.0955,-1.0956,-1.0956,0,-1.0804,-1.0823,-1.0829,-1.0839,-1.0843,-1.086,-1.0869,-1.0862,-1.0872,-1.0882,-1.0896,-1.0911,-1.0924,-1.0951,-1.0952,-1.0965,-1.0961,-1.0986,-1.0963,-1.0965,-1.0961,-1.0961,-1.0962,-1.0991,-1.0992,-1.0993,-1.0993,0,-1.0867,-1.0864,-1.0878,-1.0891,-1.0903,-1.0913,-1.0922,-1.0931,-1.0924,-1.0936,-1.0953,-1.0962,-1.0981,-1.0997,-1.1009,-1.1012,-1.1002,-1.1001,-1.1007,-1.101,-1.1011,-1.1011,-1.0932,-1.0999,-1.0999,-1.0998,-1.0998,-1.0998,-1.0913,-1.0928,-1.0935,-1.0951,-1.0957,-1.0965,-1.098,-1.098,-1.0994,-1.1009,-1.1003,-1.1023,-1.1029,-1.1045,-1.105,-1.1065,-1.1055,-1.1064,-1.1066,-1.1068,-1.1071,-1.1008,-1.1067,-1.1067,-1.1066,-1.1066,-1.1066,0,-1.0975,-1.0978,-1.0993,-1.1005,-1.1018,-1.1006,-1.1015,-1.1026,-1.1044,-1.105,-1.1063,-1.1082,-1.1097,-1.1098,-1.1112,-1.1123,-1.1119,-1.1127,-1.1127,-1.1128,-1.1079,-1.1073,-1.1131,-1.1131,-1.1131,-1.1131,-1.1131,-1.1131,-1.1009,-1.1035,-1.1033,-1.1061,-1.1064,-1.1083,-1.1089,-1.1097,-1.1102,-1.1124,-1.1137,-1.1137,-1.1141,-1.1155,-1.1168,-1.1168,-1.1174,-1.1184,-1.1183,-1.1137,-1.1131,-1.1125,-1.1119,-1.1186,-1.1186,-1.123,-1.123,-1.1231]},{"header":{"parameterUnit":"m.s-1","parameterCategory":1,"la1":30.2991,"la2":30.254,"lo1":-89.0895,"lo2":-89.0444,"dy":0.0017,"dx":0.0017,"nx":28,"ny":28,"refTime":"2023-10-30T21:00:00:Z","depth":0,"parameterNumber":3,"parameterNumberName":"V-component_of_WINDS"},"data":[0,0,0,0,0,0,0,0,0,0,0,0,0,0,0,0,0,0,0,0,0,0,0,0,0,0,0,0,0,0,0,0,0,0,0,0,0,0,0,0,0,0,0,0,0,0,0,0,0,0,0,0,0,0,0,0,0,0,-6.8733,-6.8734,0,-6.881,-6.8811,-6.8812,-6.8767,-6.8764,-6.8762,-6.876,-6.8834,-6.8837,-6.8841,0,0,0,0,0,0,0,0,0,0,0,0,0,-6.8541,-6.8545,-6.8733,-6.8734,-6.8735,-6.881,-6.8811,-6.8812,-6.8767,-6.8764,-6.8762,-6.8759,-6.8832,-6.8837,-6.8842,0,0,0,0,0,0,0,0,0,0,0,0,0,-6.8622,-6.8546,-6.8732,-6.8721,-6.8721,-6.881,-6.8811,-6.8812,-6.8767,-6.8764,-6.8761,-6.8758,-6.8831,-6.8837,-6.8842,-6.8945,0,0,-6.8861,-6.8863,0,0,0,0,0,0,0,0,-6.8617,-6.8629,-6.8722,-6.8722,-6.8722,-6.8775,-6.877,-6.8856,-6.8768,-6.875,-6.876,-6.8756,-6.8817,-6.8823,-6.8845,-6.8948,-6.8951,-6.8861,-6.8865,-6.8867,-6.8869,0,0,0,0,0,0,0,-6.8612,-6.8625,-6.8763,-6.8723,-6.8724,-6.8711,-6.8719,-6.8786,-6.88,-6.8751,-6.8748,-6.8758,-6.8816,-6.8839,-6.8846,-6.8952,-6.8861,-6.8866,-6.887,-6.8872,-6.9144,-6.9147,0,0,0,0,0,0,-6.8608,-6.8621,-6.8761,-6.8765,-6.8661,-6.8717,-6.8726,-6.8762,-6.8799,-6.8802,-6.8761,-6.8756,-6.8831,-6.8839,-6.8849,-6.8972,-6.8867,-6.8873,-6.8876,-6.914,-6.9145,-6.9149,0,0,0,0,0,0,-6.8604,-6.8621,-6.8757,-6.8692,-6.8709,-6.8724,-6.8764,-6.8765,-6.8788,-6.8807,-6.8809,-6.8783,-6.8828,-6.884,-6.8922,-6.8973,-6.8876,-6.8881,-6.9136,-6.9142,-6.9147,-6.9218,0,0,0,0,0,0,-6.8598,-6.8619,-6.8659,-6.8694,-6.8713,-6.8831,-6.8767,-6.8769,-6.8799,-6.8793,-6.8828,-6.883,-6.8827,-6.8913,-6.8928,-6.898,-6.8886,-6.9131,-6.9139,-6.9145,-6.9211,-6.9225,-6.9237,0,0,0,0,0,-6.8592,-6.8675,-6.8662,-6.8679,-6.8763,-6.8834,-6.8845,-6.8841,-6.8804,-6.8843,-6.8856,-6.8829,-6.8966,-6.8922,-6.8938,-6.8993,-6.9128,-6.9137,-6.9144,-6.9205,-6.9222,-6.9237,0,0,0,0,0,0,-6.8644,-6.8679,-6.8665,-6.8762,-6.8796,-6.8826,-6.8876,-6.8859,-6.8902,-6.8894,-6.8886,-6.8894,-6.8979,-6.8994,-6.8944,-6.9094,-6.9041,-6.9053,-6.9081,-6.9098,-6.9111,-6.9105,-6.8891,0,0,0,0,0,-6.8667,-6.8723,-6.875,-6.8833,-6.8851,-6.8861,-6.8892,-6.8886,-6.892,-6.8933,-6.8951,-6.8983,-6.9033,-6.9066,-6.9113,-6.9213,-6.922,-6.9258,-6.9272,-6.9282,-6.9292,-6.9347,-6.9364,-6.9175,-6.9175,-6.9175,0,0,-6.8715,-6.8741,-6.8776,-6.8845,-6.887,-6.8927,-6.8873,-6.8935,-6.8977,-6.8942,-6.9021,-6.9035,-6.907,-6.9162,-6.9202,-6.9176,-6.9346,-6.9293,-6.9301,-6.9305,-6.9357,-6.9375,-6.9391,-6.9181,-6.918,-6.9179,0,0,-6.8831,-6.8857,-6.8929,-6.8957,-6.8997,-6.9003,-6.902,-6.9054,-6.9063,-6.9143,-6.9118,-6.9166,-6.9253,-6.9279,-6.9304,-6.9432,-6.941,-6.9448,-6.9516,-6.9569,-6.9584,-6.9597,-6.9643,-6.9659,-6.9458,-6.9458,-6.9458,0,-6.8884,-6.8972,-6.8968,-6.9034,-6.9064,-6.9037,-6.911,-6.9135,-6.9188,-6.9209,-6.918,-6.9289,-6.931,-6.9408,-6.9439,-6.946,-6.9479,-6.9444,-6.9582,-6.9595,-6.9608,-6.9651,-6.9669,-6.9462,-6.9462,-6.9461,-6.9461,0,-6.9036,-6.9096,-6.915,-6.9204,-6.9241,-6.9309,-6.9315,-6.9352,-6.9344,-6.9353,-6.9434,-6.9459,-6.9512,-6.9534,-6.9525,-6.9631,-6.9613,-6.9583,-6.953,-6.963,-6.9671,-6.9688,-6.9469,-6.9467,-6.9466,-6.9465,0,0,-6.9186,-6.9239,-6.9259,-6.9284,-6.9327,-6.9373,-6.944,-6.9493,-6.9525,-6.9562,-6.9618,-6.9693,-6.9666,-6.9694,-6.9688,-6.9735,-6.9835,-6.9699,-6.9699,-6.9723,-6.9953,-6.9976,-6.9995,-6.9821,-6.9824,-6.9826,-6.995,0,-6.9305,-6.9425,-6.9425,-6.9535,-6.9591,-6.9566,-6.9625,-6.9657,-6.9667,-6.9715,-6.9725,-6.9779,-6.9739,-6.9756,-6.9801,-6.9814,-6.9881,-6.9804,-6.9871,-6.9874,-6.9864,-7.0017,-7.004,-7.0156,-6.9966,-6.9969,-6.9971,0,-6.946,-6.9506,-6.9622,-6.9659,-6.9682,-6.9735,-6.9784,-6.9831,-6.9866,-6.987,-6.9903,-6.989,-6.9957,-6.9902,-6.9994,-6.9942,-6.9969,-6.998,-6.9984,-6.999,-6.9928,-7.0027,-7.0193,-7.0211,-6.9996,-6.9994,-6.9992,0,-6.9559,-6.9649,-6.9731,-6.9752,-6.9796,-6.9834,-6.9854,-6.9887,-6.9919,-6.9962,-6.9982,-7.0031,-7.0058,-7.0096,-7.0096,-7.0056,-7.0189,-7.0134,-7.0194,-7.0194,-7.0223,-7.0221,-7.0396,-7.024,-7.024,-7.024,-7.0239,0,-6.9692,-6.9765,-6.9776,-6.9826,-6.9906,-6.9904,-6.9983,-6.9999,-7.0029,-7.008,-7.0061,-7.011,-7.0107,-7.0156,-7.0157,-7.0233,-7.0245,-7.025,-7.0249,-7.0252,-7.0251,-7.0269,-7.0261,-7.0244,-7.0243,-7.0242,-7.0242,0,-6.9816,-6.9826,-6.9914,-6.9949,-6.996,-7.0018,-7.0047,-7.0094,-7.0103,-7.0169,-7.0185,-7.0199,-7.0256,-7.026,-7.0325,-7.0325,-7.0418,-7.0408,-7.0407,-7.0405,-7.0465,-7.0459,-7.0657,-7.0683,-7.0511,-7.0512,-7.0514,0,-6.99,-6.9956,-6.9998,-7.0033,-7.0056,-7.0111,-7.0145,-7.0145,-7.0181,-7.0227,-7.0268,-7.0324,-7.0368,-7.046,-7.0475,-7.0525,-7.0516,-7.0582,-7.0523,-7.0525,-7.0517,-7.0514,-7.052,-7.0593,-7.0595,-7.0597,-7.0598,0,-7.0049,-7.0052,-7.0103,-7.0157,-7.0198,-7.024,-7.0278,-7.0307,-7.0311,-7.0352,-7.0412,-7.0447,-7.0515,-7.057,-7.0619,-7.0637,-7.0619,-7.0617,-7.0633,-7.0637,-7.0634,-7.0637,-7.0438,-7.0612,-7.0611,-7.061,-7.0609,-7.0608,-7.0156,-7.0205,-7.0243,-7.03,-7.033,-7.0367,-7.0414,-7.043,-7.048,-7.0537,-7.0534,-7.0599,-7.0633,-7.0698,-7.072,-7.077,-7.0748,-7.0771,-7.0777,-7.0783,-7.079,-7.0626,-7.0779,-7.0779,-7.0778,-7.0778,-7.0778,0,-7.0305,-7.0329,-7.0382,-7.0438,-7.0483,-7.0464,-7.0506,-7.0544,-7.0603,-7.0638,-7.0683,-7.0751,-7.0805,-7.0825,-7.0877,-7.0913,-7.0906,-7.0927,-7.0924,-7.0929,-7.0807,-7.0788,-7.0932,-7.0932,-7.0932,-7.0932,-7.0932,-7.0932,-7.0387,-7.0469,-7.0477,-7.0573,-7.0596,-7.0662,-7.0687,-7.0721,-7.0749,-7.0827,-7.0873,-7.0886,-7.0915,-7.0969,-7.1017,-7.1021,-7.1041,-7.1066,-7.1067,-7.0953,-7.0937,-7.0922,-7.0904,-7.107,-7.1071,-7.1184,-7.1185,-7.1186]}]]